Вернуться в каталог

HULIANWANG DIGUI-03

АктивенСвязьPO
NORAD 62325·PAYLOAD·🇨🇳 China

Запущен Dec 16, 2024 с Wenchang Space Launch Site

Loading…

Ближайшие Пролёты (ближайшие 24 часа)

TLE

СвежийSource: Space-Track

Эпоха: Sep 14, 2026, 14:10 UTC

1 62325U 24240C   26257.59094727  .00000035  00000-0  46957-4 0  9998
2 62325  86.4977 312.9788 0001714  90.9813 269.1518 13.24412760 84477

Отслеживайте HULIANWANG DIGUI-03 в реальном времени с AllMySat

Download on the App Store